Regional Weather Roundup
Issued by NWS New Orleans/Baton Rouge, LA

Home | Current Version | Previous Version | Graphics & Text | Print | Product List | Glossary On
Versions: 1 2 3 4 5 6 7 8 9 10 11 12 13 14 15 16 17 18 19 20 21 22 23 24 25 26 27 28 29 30 31 32 33 34 35 36 37 38 39 40 41 42 43 44 45 46 47 48 49 50
010
ASUS44 KLIX 211407
RWRLIX
NEW ORLEANS REGIONAL WEATHER ROUNDUP
NATIONAL WEATHER SERVICE NEW ORLEANS LA
900 AM CDT SUN SEP 21 2014

NOTE: "FAIR" INDICATES FEW OR NO CLOUDS BELOW 12,000 FEET WITH NO
      SIGNIFICANT WEATHER AND/OR OBSTRUCTIONS TO VISIBILITY.
      SKY/WX - SKY CONDITION AND SIGNIFICANT WEATHER.
      TMP - AIR TEMPERATURE.     DP    - DEWPOINT TEMPERATURE.
      RH  - RELATIVE HUMIDITY.   PRES  - PRESSURE.
      HI  - HEAT INDEX.          WCI   - WIND CHILL INDEX.

*  THESE STATIONS ARE NOT NWS OR FAA STATIONS AND ARE NOT UNDER
   NWS QUALITY CONTROL.

LAZ038-040-048-061>063-065>067-069-211500-
SOUTHEAST LOUISIANA

CITY           SKY/WX    TMP DP  RH WIND       PRES   REMARKS
N.O. AUDUBON     N/A     82  70  68 MISG        N/A
N.O. INTL ARPT MOSUNNY   79  69  71 E10       30.02R
N.O. LAKEFRONT SUNNY     78  70  76 NE14      30.03R
N.O. DOWNTOWN*   N/A     79  66  65 N6        30.03S
SLIDELL        SUNNY     75  67  76 NE5       30.03S
BATON ROUGE    SUNNY     76  69  79 E6        30.04R
BOOTHVILLE     SUNNY     82  74  76 NE10      30.01R
BELLE CHASSE   MOSUNNY   80  71  74 NE9       30.02R
BOGALUSA*        N/A     74  67  78 NE3       30.07R
GALLIANO*      NOT AVBL
NEW ROADS*       N/A     76  69  80 MISG      30.05S
GONZALES*        N/A     76  72  88 NE3       30.03S
HAMMOND*       SUNNY     77  66  69 E3        30.06R
HOUMA*         SUNNY     77  64  65 NE5       30.01S
PORT FOURCHON* SUNNY     81  73  78 NE12G20   30.03R

$$

MSZ070-080>082-211500-
SOUTHERN MISSISSIPPI

CITY           SKY/WX    TMP DP  RH WIND       PRES   REMARKS
MCCOMB         SUNNY     74  66  76 E5        30.06S
GULFPORT       SUNNY     77  67  71 NE7       30.02S
BILOXI         SUNNY     76  67  73 NE7       30.03R
PASCAGOULA     SUNNY     76  68  76 NE7       30.03S
STENNIS ARPT*  SUNNY     75  64  69 E5        30.04R

$$

COASTAL OBSERVATIONS
LAKE AND NEARSHORE STATIONS

STATION/POSITION TIME  TEMP    WIND        PRES    WAVE
                       AIR SEA DIR/SP/G            HT/PER
                 (UTC) (F)     (DEG/KT/KT) (MB)    (FT/S)
PASCAGOULA       1400   78      50/  9/ 13 1016.0
WAVELAND YACHT   1400   75      40/  7/  8 1016.2
GRAND ISLE       1400   80 81   70/ 12/ 16 1016.3
SOUTHWEST PASS   1400   85 89   60/ 12/ 14 1015.9
NEW CANAL        1400   76 80   60/ 12/ 14 1017.1
SHELL BEACH      1400   78 77   40/ 11/ 13 1016.2

OFFSHORE STATIONS

STATION/POSITION TIME  TEMP    WIND        PRES    WAVE
                       AIR SEA DIR/SP/G            HT/PER
                 (UTC) (F)     (DEG/KT/KT) (MB)    (FT/S)
64 S DAUPHIN ISL 1318   82 84   80/ 16/ 17 1015.6    3/ 5

$$




USA.gov is the U.S. government's official web portal to all federal, state and local government web resources and services.